Location: Newark
(6.1731°S, 35.7419°E)
Time: 19:04:34
(UTC+00:00)

S-56A Canister/Altair - All Passes

Search period start: 21 February 2020 00:00
Search period end: 02 March 2020 00:00
Orbit: 633 x 2499 km, 38.9° (Epoch: 21 February)

Date Brightness Start Highest point End Pass type
(mag) Time Alt. Az. Time Alt. Az. Time Alt. Az.
21 Feb - 03:35:51 10° SSW 03:43:05 35° SE 03:53:22 10° ENE daylight
21 Feb - 05:38:41 10° WSW 05:48:18 67° NW 06:02:08 10° NE daylight
21 Feb - 07:46:58 10° W 07:55:41 22° NW 08:05:48 10° N daylight
21 Feb - 16:32:46 10° NNW 16:39:51 28° NE 16:45:03 10° E visible
21 Feb - 18:37:47 10° WNW 18:44:15 46° SW 18:49:01 10° SSE visible
22 Feb - 03:03:45 10° SSW 03:10:09 28° SE 03:18:57 10° E visible
22 Feb - 05:05:58 10° SW 05:15:00 76° NW 05:28:26 10° NE daylight
22 Feb - 07:13:12 10° W 07:22:02 24° NW 07:32:43 10° NNE daylight
22 Feb - 15:59:40 10° NNW 16:06:52 25° NNE 16:12:13 10° E daylight
22 Feb - 18:04:18 10° WNW 18:11:39 61° SW 18:16:47 10° SE visible
23 Feb - 02:31:48 10° S 02:37:15 22° SE 02:44:24 10° E visible
23 Feb - 04:33:22 10° SW 04:41:49 86° NW 04:54:40 10° NE daylight
23 Feb - 06:39:41 10° W 06:48:27 27° NW 06:59:31 10° NNE daylight
23 Feb - 15:26:33 10° NNW 15:33:47 22° NNE 15:39:15 10° E daylight
23 Feb - 17:30:50 10° NW 17:39:00 78° SW 17:44:29 10° SE visible
24 Feb - 02:00:06 10° S 02:04:23 17° SE 02:09:39 10° E visible
24 Feb - 04:00:51 10° SW 04:08:43 82° SE 04:20:51 10° NE daylight
24 Feb - 06:06:23 10° W 06:14:57 30° NW 06:26:13 10° NNE daylight
24 Feb - 14:53:27 10° N 15:00:36 20° NNE 15:06:10 10° ENE daylight
24 Feb - 16:57:20 10° NW 17:06:16 86° NE 17:12:08 10° SE visible
24 Feb - 19:07:22 10° WSW 19:09:56 13° SW 19:12:14 10° SSW visible
25 Feb - 01:28:59 10° SSE 01:31:32 12° SE 01:34:24 10° ESE visible
25 Feb - 03:28:26 10° SW 03:35:44 70° SE 03:46:59 10° NE daylight
25 Feb - 05:33:15 10° W 05:41:32 34° NW 05:52:50 10° NNE daylight
25 Feb - 14:20:22 10° N 14:27:20 18° NNE 14:32:55 10° ENE daylight
25 Feb - 16:23:50 10° NW 16:33:27 73° NE 16:39:42 10° SE visible
25 Feb - 18:32:49 10° W 18:37:15 18° SW 18:40:54 10° S visible
26 Feb - 02:56:06 10° SW 03:02:50 58° SE 03:13:06 10° ENE visible
26 Feb - 05:00:16 10° W 05:08:12 38° NW 05:19:25 10° NNE daylight
26 Feb - 07:15:16 10° NNW 07:16:23 10° NNW 07:17:32 10° NNW daylight
26 Feb - 13:47:20 10° N 13:53:59 16° NNE 13:59:28 10° ENE daylight
26 Feb - 15:50:19 10° NW 16:00:33 62° NE 16:07:12 10° ESE daylight
26 Feb - 17:58:36 10° W 18:04:34 24° SW 18:09:08 10° S visible
27 Feb - 02:23:52 10° SSW 02:30:01 47° SE 02:39:11 10° ENE visible
27 Feb - 04:27:25 10° WSW 04:34:57 42° NW 04:45:58 10° NNE daylight
27 Feb - 06:39:12 10° NW 06:42:41 12° NNW 06:46:28 10° N daylight
27 Feb - 13:14:25 10° N 13:20:31 15° NNE 13:25:45 10° ENE daylight
27 Feb - 15:16:48 10° NW 15:27:33 54° NE 15:34:37 10° ESE daylight
27 Feb - 17:24:31 10° WNW 17:31:53 31° SW 17:37:11 10° SSE visible
28 Feb - 01:51:43 10° SSW 01:57:17 37° SE 02:05:14 10° ENE visible
28 Feb - 03:54:41 10° WSW 04:01:49 48° NW 04:12:29 10° NNE daylight
28 Feb - 06:04:41 10° NW 06:09:05 13° NNW 06:14:04 10° N daylight
28 Feb - 12:41:40 10° N 12:46:58 13° NNE 12:51:41 10° NE daylight
28 Feb - 14:43:17 10° NNW 14:54:26 47° NE 15:01:57 10° ESE daylight
28 Feb - 16:50:30 10° WNW 16:59:09 40° SW 17:05:06 10° SSE visible
29 Feb - 01:19:41 10° SSW 01:24:36 28° SE 01:31:15 10° E visible
29 Feb - 03:22:02 10° WSW 03:28:46 55° NW 03:38:59 10° NE visible
29 Feb - 05:30:41 10° WNW 05:35:35 14° NNW 05:41:19 10° N daylight
29 Feb - 12:09:17 10° N 12:13:20 12° NNE 12:17:03 10° NE daylight
29 Feb - 14:09:47 10° NNW 14:21:14 42° NE 14:29:10 10° ESE daylight
29 Feb - 16:16:32 10° WNW 16:26:22 50° SW 16:32:55 10° SSE visible
01 Mar - 00:47:47 10° S 00:51:56 21° SE 00:57:11 10° E visible
01 Mar - 02:49:29 10° WSW 02:55:49 64° NW 03:05:31 10° NE visible
01 Mar - 04:57:02 10° WNW 05:02:11 16° NNW 05:08:25 10° N daylight
01 Mar - 11:38:15 10° NNE 11:39:35 10° NNE 11:40:52 10° NNE daylight
01 Mar - 13:36:19 10° NNW 13:47:56 37° NE 13:56:16 10° E daylight
01 Mar - 15:42:36 10° WNW 15:53:31 62° SW 16:00:38 10° SE daylight
